owner,sensor,date,latitude,longitude,sea_surface_height_above_sea_level,qcFlag 
COMPS,ioos:station:USF.COMPS:FHP:1,2012-02-02T21:00:00Z,28.1530,-82.8010,0.045,1111122 
COMPS,ioos:station:USF.COMPS:FHP:1,2012-02-02T21:06:00Z,28.1530,-82.8010,0.044,1111122 
COMPS,ioos:station:USF.COMPS:FHP:1,2012-02-02T21:12:00Z,28.1530,-82.8010,0.051,1111122 
COMPS,ioos:station:USF.COMPS:FHP:1,2012-02-02T21:18:00Z,28.1530,-82.8010,0.056,1111122 
COMPS,ioos:station:USF.COMPS:FHP:1,2012-02-02T21:24:00Z,28.1530,-82.8010,0.063,1111122 
COMPS,ioos:station:USF.COMPS:FHP:1,2012-02-02T21:30:00Z,28.1530,-82.8010,0.07,1111122 
COMPS,ioos:station:USF.COMPS:FHP:1,2012-02-02T21:36:00Z,28.1530,-82.8010,0.074,1111122 
COMPS,ioos:station:USF.COMPS:FHP:1,2012-02-02T21:42:00Z,28.1530,-82.8010,0.083,1111122 
COMPS,ioos:station:USF.COMPS:FHP:1,2012-02-02T21:48:00Z,28.1530,-82.8010,0.087,1111122 
COMPS,ioos:station:USF.COMPS:FHP:1,2012-02-02T21:54:00Z,28.1530,-82.8010,0.087,1111122 
COMPS,ioos:station:USF.COMPS:FHP:1,2012-02-02T22:00:00Z,28.1530,-82.8010,0.093,1111122 
COMPS,ioos:station:USF.COMPS:FHP:1,2012-02-02T22:06:00Z,28.1530,-82.8010,0.108,1111122 
COMPS,ioos:station:USF.COMPS:FHP:1,2012-02-02T22:12:00Z,28.1530,-82.8010,0.116,1111122 
COMPS,ioos:station:USF.COMPS:FHP:1,2012-02-02T22:18:00Z,28.1530,-82.8010,0.131,1111122 
COMPS,ioos:station:USF.COMPS:FHP:1,2012-02-02T22:24:00Z,28.1530,-82.8010,0.145,1111122 
COMPS,ioos:station:USF.COMPS:FHP:1,2012-02-02T22:30:00Z,28.1530,-82.8010,0.15,1111122 
COMPS,ioos:station:USF.COMPS:FHP:1,2012-02-02T22:36:00Z,28.1530,-82.8010,0.163,1111122 
COMPS,ioos:station:USF.COMPS:FHP:1,2012-02-02T22:42:00Z,28.1530,-82.8010,0.173,1111122 
COMPS,ioos:station:USF.COMPS:FHP:1,2012-02-02T22:48:00Z,28.1530,-82.8010,0.187,1111122 
COMPS,ioos:station:USF.COMPS:FHP:1,2012-02-02T22:54:00Z,28.1530,-82.8010,0.198,1111122 
COMPS,ioos:station:USF.COMPS:FHP:1,2012-02-02T23:00:00Z,28.1530,-82.8010,0.207,1111122 
COMPS,ioos:station:USF.COMPS:FHP:1,2012-02-02T23:06:00Z,28.1530,-82.8010,0.206,1111122 
COMPS,ioos:station:USF.COMPS:FHP:1,2012-02-02T23:12:00Z,28.1530,-82.8010,0.208,1111122 
COMPS,ioos:station:USF.COMPS:FHP:1,2012-02-02T23:18:00Z,28.1530,-82.8010,0.214,1111122 
COMPS,ioos:station:USF.COMPS:FHP:1,2012-02-02T23:24:00Z,28.1530,-82.8010,0.228,1111122 
COMPS,ioos:station:USF.COMPS:FHP:1,2012-02-02T23:30:00Z,28.1530,-82.8010,0.234,1111122 
COMPS,ioos:station:USF.COMPS:FHP:1,2012-02-02T23:36:00Z,28.1530,-82.8010,0.24,1111122 
COMPS,ioos:station:USF.COMPS:FHP:1,2012-02-02T23:42:00Z,28.1530,-82.8010,0.234,1111122 
COMPS,ioos:station:USF.COMPS:FHP:1,2012-02-02T23:48:00Z,28.1530,-82.8010,0.241,1111122 
COMPS,ioos:station:USF.COMPS:FHP:1,2012-02-03T00:00:00Z,28.1530,-82.8010,0.254,1111122 
COMPS,ioos:station:USF.COMPS:FHP:1,2012-02-03T00:06:00Z,28.1530,-82.8010,0.255,1111122 
COMPS,ioos:station:USF.COMPS:FHP:1,2012-02-03T00:12:00Z,28.1530,-82.8010,0.267,1111122 
COMPS,ioos:station:USF.COMPS:FHP:1,2012-02-03T00:24:00Z,28.1530,-82.8010,0.266,1111122 
COMPS,ioos:station:USF.COMPS:FHP:1,2012-02-03T00:30:00Z,28.1530,-82.8010,0.26,1111122 
COMPS,ioos:station:USF.COMPS:FHP:1,2012-02-03T00:36:00Z,28.1530,-82.8010,0.262,1111122 
COMPS,ioos:station:USF.COMPS:FHP:1,2012-02-03T00:42:00Z,28.1530,-82.8010,0.255,1111122 
COMPS,ioos:station:USF.COMPS:FHP:1,2012-02-03T00:48:00Z,28.1530,-82.8010,0.249,1111122 
COMPS,ioos:station:USF.COMPS:FHP:1,2012-02-03T00:54:00Z,28.1530,-82.8010,0.245,1111122 
COMPS,ioos:station:USF.COMPS:FHP:1,2012-02-03T01:00:00Z,28.1530,-82.8010,0.244,1111122 
COMPS,ioos:station:USF.COMPS:FHP:1,2012-02-03T01:06:00Z,28.1530,-82.8010,0.239,1111122 
COMPS,ioos:station:USF.COMPS:FHP:1,2012-02-03T01:12:00Z,28.1530,-82.8010,0.238,1111122 
COMPS,ioos:station:USF.COMPS:FHP:1,2012-02-03T01:24:00Z,28.1530,-82.8010,0.215,1111122 
COMPS,ioos:station:USF.COMPS:FHP:1,2012-02-03T01:30:00Z,28.1530,-82.8010,0.221,1111122 
COMPS,ioos:station:USF.COMPS:FHP:1,2012-02-03T01:36:00Z,28.1530,-82.8010,0.205,1111122 
COMPS,ioos:station:USF.COMPS:FHP:1,2012-02-03T01:42:00Z,28.1530,-82.8010,0.207,1111122 
COMPS,ioos:station:USF.COMPS:FHP:1,2012-02-03T01:48:00Z,28.1530,-82.8010,0.195,1111122 
COMPS,ioos:station:USF.COMPS:FHP:1,2012-02-03T01:54:00Z,28.1530,-82.8010,0.186,1111122 
COMPS,ioos:station:USF.COMPS:FHP:1,2012-02-03T02:00:00Z,28.1530,-82.8010,0.179,1111122 
COMPS,ioos:station:USF.COMPS:FHP:1,2012-02-03T02:06:00Z,28.1530,-82.8010,0.17,1111122 
COMPS,ioos:station:USF.COMPS:FHP:1,2012-02-03T02:12:00Z,28.1530,-82.8010,0.156,1111122 
COMPS,ioos:station:USF.COMPS:FHP:1,2012-02-03T02:18:00Z,28.1530,-82.8010,0.143,1111122 
COMPS,ioos:station:USF.COMPS:FHP:1,2012-02-03T02:24:00Z,28.1530,-82.8010,0.136,1111122 
COMPS,ioos:station:USF.COMPS:FHP:1,2012-02-03T02:30:00Z,28.1530,-82.8010,0.133,1111122 
COMPS,ioos:station:USF.COMPS:FHP:1,2012-02-03T02:36:00Z,28.1530,-82.8010,0.121,1111122 
COMPS,ioos:station:USF.COMPS:FHP:1,2012-02-03T02:48:00Z,28.1530,-82.8010,0.105,1111122 
COMPS,ioos:station:USF.COMPS:FHP:1,2012-02-03T02:54:00Z,28.1530,-82.8010,0.088,1111122 
COMPS,ioos:station:USF.COMPS:FHP:1,2012-02-03T03:00:00Z,28.1530,-82.8010,0.082,1111122 
COMPS,ioos:station:USF.COMPS:FHP:1,2012-02-03T03:06:00Z,28.1530,-82.8010,0.061,1111122 
COMPS,ioos:station:USF.COMPS:FHP:1,2012-02-03T03:12:00Z,28.1530,-82.8010,0.058,1111122 
COMPS,ioos:station:USF.COMPS:FHP:1,2012-02-03T03:18:00Z,28.1530,-82.8010,0.044,1111122 
COMPS,ioos:station:USF.COMPS:FHP:1,2012-02-03T03:30:00Z,28.1530,-82.8010,0.018,1111122 
COMPS,ioos:station:USF.COMPS:FHP:1,2012-02-03T03:36:00Z,28.1530,-82.8010,-0.002,1111122 
COMPS,ioos:station:USF.COMPS:FHP:1,2012-02-03T03:42:00Z,28.1530,-82.8010,-0.013,1111122 
COMPS,ioos:station:USF.COMPS:FHP:1,2012-02-03T03:48:00Z,28.1530,-82.8010,-0.035,1111122 
COMPS,ioos:station:USF.COMPS:FHP:1,2012-02-03T04:06:00Z,28.1530,-82.8010,-0.065,1111122 
COMPS,ioos:station:USF.COMPS:FHP:1,2012-02-03T04:12:00Z,28.1530,-82.8010,-0.08,1111122 
COMPS,ioos:station:USF.COMPS:FHP:1,2012-02-03T04:18:00Z,28.1530,-82.8010,-0.091,1111122 
COMPS,ioos:station:USF.COMPS:FHP:1,2012-02-03T04:24:00Z,28.1530,-82.8010,-0.102,1111122 
COMPS,ioos:station:USF.COMPS:FHP:1,2012-02-03T04:30:00Z,28.1530,-82.8010,-0.125,1111122 
COMPS,ioos:station:USF.COMPS:FHP:1,2012-02-03T04:36:00Z,28.1530,-82.8010,-0.133,1111122 
COMPS,ioos:station:USF.COMPS:FHP:1,2012-02-03T04:42:00Z,28.1530,-82.8010,-0.155,1111122 
COMPS,ioos:station:USF.COMPS:FHP:1,2012-02-03T04:54:00Z,28.1530,-82.8010,-0.184,1111122 
COMPS,ioos:station:USF.COMPS:FHP:1,2012-02-03T05:00:00Z,28.1530,-82.8010,-0.198,1111122 
COMPS,ioos:station:USF.COMPS:FHP:1,2012-02-03T05:06:00Z,28.1530,-82.8010,-0.22,1111122 
COMPS,ioos:station:USF.COMPS:FHP:1,2012-02-03T05:12:00Z,28.1530,-82.8010,-0.24,1111122 
COMPS,ioos:station:USF.COMPS:FHP:1,2012-02-03T05:18:00Z,28.1530,-82.8010,-0.247,1111122 
COMPS,ioos:station:USF.COMPS:FHP:1,2012-02-03T05:30:00Z,28.1530,-82.8010,-0.279,1111122 
COMPS,ioos:station:USF.COMPS:FHP:1,2012-02-03T05:36:00Z,28.1530,-82.8010,-0.291,1111122 
COMPS,ioos:station:USF.COMPS:FHP:1,2012-02-03T05:42:00Z,28.1530,-82.8010,-0.308,1111122 
COMPS,ioos:station:USF.COMPS:FHP:1,2012-02-03T05:48:00Z,28.1530,-82.8010,-0.324,1111122 
COMPS,ioos:station:USF.COMPS:FHP:1,2012-02-03T05:54:00Z,28.1530,-82.8010,-0.344,1111122 
COMPS,ioos:station:USF.COMPS:FHP:1,2012-02-03T06:00:00Z,28.1530,-82.8010,-0.362,1111122 
COMPS,ioos:station:USF.COMPS:FHP:1,2012-02-03T06:12:00Z,28.1530,-82.8010,-0.39,1111122 
COMPS,ioos:station:USF.COMPS:FHP:1,2012-02-03T06:18:00Z,28.1530,-82.8010,-0.41,1111122 
COMPS,ioos:station:USF.COMPS:FHP:1,2012-02-03T06:24:00Z,28.1530,-82.8010,-0.424,1111122 
COMPS,ioos:station:USF.COMPS:FHP:1,2012-02-03T06:30:00Z,28.1530,-82.8010,-0.437,1111122 
COMPS,ioos:station:USF.COMPS:FHP:1,2012-02-03T06:36:00Z,28.1530,-82.8010,-0.456,1111122 
COMPS,ioos:station:USF.COMPS:FHP:1,2012-02-03T06:42:00Z,28.1530,-82.8010,-0.467,1111122 
COMPS,ioos:station:USF.COMPS:FHP:1,2012-02-03T06:48:00Z,28.1530,-82.8010,-0.478,1111122 
COMPS,ioos:station:USF.COMPS:FHP:1,2012-02-03T07:00:00Z,28.1530,-82.8010,-0.498,1111122 
COMPS,ioos:station:USF.COMPS:FHP:1,2012-02-03T07:06:00Z,28.1530,-82.8010,-0.509,1111122 
COMPS,ioos:station:USF.COMPS:FHP:1,2012-02-03T07:12:00Z,28.1530,-82.8010,-0.519,1111122 
COMPS,ioos:station:USF.COMPS:FHP:1,2012-02-03T07:36:00Z,28.1530,-82.8010,-0.553,1111122 
COMPS,ioos:station:USF.COMPS:FHP:1,2012-02-03T07:42:00Z,28.1530,-82.8010,-0.563,1111122 
COMPS,ioos:station:USF.COMPS:FHP:1,2012-02-03T07:54:00Z,28.1530,-82.8010,-0.575,1111122 
COMPS,ioos:station:USF.COMPS:FHP:1,2012-02-03T08:00:00Z,28.1530,-82.8010,-0.583,1111122 
COMPS,ioos:station:USF.COMPS:FHP:1,2012-02-03T08:06:00Z,28.1530,-82.8010,-0.586,1111122 
COMPS,ioos:station:USF.COMPS:FHP:1,2012-02-03T08:12:00Z,28.1530,-82.8010,-0.592,1111122 
COMPS,ioos:station:USF.COMPS:FHP:1,2012-02-03T08:18:00Z,28.1530,-82.8010,-0.599,1111122 
COMPS,ioos:station:USF.COMPS:FHP:1,2012-02-03T09:12:00Z,28.1530,-82.8010,-0.607,1111122 
COMPS,ioos:station:USF.COMPS:FHP:1,2012-02-03T09:18:00Z,28.1530,-82.8010,-0.603,1111122 
COMPS,ioos:station:USF.COMPS:FHP:1,2012-02-03T09:24:00Z,28.1530,-82.8010,-0.6,1111122 
COMPS,ioos:station:USF.COMPS:FHP:1,2012-02-03T09:30:00Z,28.1530,-82.8010,-0.589,1111122 
COMPS,ioos:station:USF.COMPS:FHP:1,2012-02-03T09:36:00Z,28.1530,-82.8010,-0.582,1111122 
COMPS,ioos:station:USF.COMPS:FHP:1,2012-02-03T09:42:00Z,28.1530,-82.8010,-0.573,1111122 
COMPS,ioos:station:USF.COMPS:FHP:1,2012-02-03T09:54:00Z,28.1530,-82.8010,-0.552,1111122 
COMPS,ioos:station:USF.COMPS:FHP:1,2012-02-03T10:00:00Z,28.1530,-82.8010,-0.54,1111122 
COMPS,ioos:station:USF.COMPS:FHP:1,2012-02-03T10:06:00Z,28.1530,-82.8010,-0.538,1111122 
COMPS,ioos:station:USF.COMPS:FHP:1,2012-02-03T10:12:00Z,28.1530,-82.8010,-0.529,1111122 
COMPS,ioos:station:USF.COMPS:FHP:1,2012-02-03T10:18:00Z,28.1530,-82.8010,-0.519,1111122 
COMPS,ioos:station:USF.COMPS:FHP:1,2012-02-03T10:24:00Z,28.1530,-82.8010,-0.505,1111122 
COMPS,ioos:station:USF.COMPS:FHP:1,2012-02-03T10:30:00Z,28.1530,-82.8010,-0.494,1111122 
COMPS,ioos:station:USF.COMPS:FHP:1,2012-02-03T10:36:00Z,28.1530,-82.8010,-0.485,1111122 
COMPS,ioos:station:USF.COMPS:FHP:1,2012-02-03T10:42:00Z,28.1530,-82.8010,-0.475,1111122 
COMPS,ioos:station:USF.COMPS:FHP:1,2012-02-03T10:48:00Z,28.1530,-82.8010,-0.462,1111122 
COMPS,ioos:station:USF.COMPS:FHP:1,2012-02-03T10:54:00Z,28.1530,-82.8010,-0.451,1111122 
COMPS,ioos:station:USF.COMPS:FHP:1,2012-02-03T11:00:00Z,28.1530,-82.8010,-0.431,1111122 
COMPS,ioos:station:USF.COMPS:FHP:1,2012-02-03T11:06:00Z,28.1530,-82.8010,-0.422,1111122 
COMPS,ioos:station:USF.COMPS:FHP:1,2012-02-03T11:12:00Z,28.1530,-82.8010,-0.407,1111122 
COMPS,ioos:station:USF.COMPS:FHP:1,2012-02-03T11:18:00Z,28.1530,-82.8010,-0.395,1111122 
COMPS,ioos:station:USF.COMPS:FHP:1,2012-02-03T11:24:00Z,28.1530,-82.8010,-0.382,1111122 
COMPS,ioos:station:USF.COMPS:FHP:1,2012-02-03T11:30:00Z,28.1530,-82.8010,-0.362,1111122 
COMPS,ioos:station:USF.COMPS:FHP:1,2012-02-03T11:36:00Z,28.1530,-82.8010,-0.345,1111122 
COMPS,ioos:station:USF.COMPS:FHP:1,2012-02-03T11:42:00Z,28.1530,-82.8010,-0.328,1111122 
COMPS,ioos:station:USF.COMPS:FHP:1,2012-02-03T11:48:00Z,28.1530,-82.8010,-0.311,1111122 
COMPS,ioos:station:USF.COMPS:FHP:1,2012-02-03T11:54:00Z,28.1530,-82.8010,-0.3,1111122 
COMPS,ioos:station:USF.COMPS:FHP:1,2012-02-03T12:00:00Z,28.1530,-82.8010,-0.283,1111122 
COMPS,ioos:station:USF.COMPS:FHP:1,2012-02-03T12:06:00Z,28.1530,-82.8010,-0.266,1111122 
COMPS,ioos:station:USF.COMPS:FHP:1,2012-02-03T12:12:00Z,28.1530,-82.8010,-0.253,1111122 
COMPS,ioos:station:USF.COMPS:FHP:1,2012-02-03T12:18:00Z,28.1530,-82.8010,-0.231,1111122 
COMPS,ioos:station:USF.COMPS:FHP:1,2012-02-03T12:24:00Z,28.1530,-82.8010,-0.22,1111122 
COMPS,ioos:station:USF.COMPS:FHP:1,2012-02-03T12:30:00Z,28.1530,-82.8010,-0.202,1111122 
COMPS,ioos:station:USF.COMPS:FHP:1,2012-02-03T12:36:00Z,28.1530,-82.8010,-0.193,1111122 
COMPS,ioos:station:USF.COMPS:FHP:1,2012-02-03T12:42:00Z,28.1530,-82.8010,-0.172,1111122 
COMPS,ioos:station:USF.COMPS:FHP:1,2012-02-03T12:48:00Z,28.1530,-82.8010,-0.165,1111122 
COMPS,ioos:station:USF.COMPS:FHP:1,2012-02-03T12:54:00Z,28.1530,-82.8010,-0.152,1111122 
COMPS,ioos:station:USF.COMPS:FHP:1,2012-02-03T13:00:00Z,28.1530,-82.8010,-0.141,1111122 
COMPS,ioos:station:USF.COMPS:FHP:1,2012-02-03T13:06:00Z,28.1530,-82.8010,-0.128,1111122 
COMPS,ioos:station:USF.COMPS:FHP:1,2012-02-03T13:12:00Z,28.1530,-82.8010,-0.117,1111122 
COMPS,ioos:station:USF.COMPS:FHP:1,2012-02-03T13:18:00Z,28.1530,-82.8010,-0.108,1111122 
COMPS,ioos:station:USF.COMPS:FHP:1,2012-02-03T13:24:00Z,28.1530,-82.8010,-0.111,1111122 
COMPS,ioos:station:USF.COMPS:FHP:1,2012-02-03T13:30:00Z,28.1530,-82.8010,-0.102,1111122 
COMPS,ioos:station:USF.COMPS:FHP:1,2012-02-03T13:36:00Z,28.1530,-82.8010,-0.104,1111122 
COMPS,ioos:station:USF.COMPS:FHP:1,2012-02-03T13:42:00Z,28.1530,-82.8010,-0.095,1111122 
COMPS,ioos:station:USF.COMPS:FHP:1,2012-02-03T13:48:00Z,28.1530,-82.8010,-0.085,1111122 
COMPS,ioos:station:USF.COMPS:FHP:1,2012-02-03T13:54:00Z,28.1530,-82.8010,-0.084,1111122 
COMPS,ioos:station:USF.COMPS:FHP:1,2012-02-03T14:00:00Z,28.1530,-82.8010,-0.07,1111122 
COMPS,ioos:station:USF.COMPS:FHP:1,2012-02-03T14:06:00Z,28.1530,-82.8010,-0.074,1111122 
COMPS,ioos:station:USF.COMPS:FHP:1,2012-02-03T14:12:00Z,28.1530,-82.8010,-0.074,1111122 
COMPS,ioos:station:USF.COMPS:FHP:1,2012-02-03T14:18:00Z,28.1530,-82.8010,-0.06,1111122 
COMPS,ioos:station:USF.COMPS:FHP:1,2012-02-03T14:24:00Z,28.1530,-82.8010,-0.065,1111122 
COMPS,ioos:station:USF.COMPS:FHP:1,2012-02-03T14:36:00Z,28.1530,-82.8010,-0.04,1111122 
COMPS,ioos:station:USF.COMPS:FHP:1,2012-02-03T14:42:00Z,28.1530,-82.8010,-0.036,1111122 
COMPS,ioos:station:USF.COMPS:FHP:1,2012-02-03T14:54:00Z,28.1530,-82.8010,-0.026,1111122 
COMPS,ioos:station:USF.COMPS:FHP:1,2012-02-03T15:00:00Z,28.1530,-82.8010,-0.013,1111122 
COMPS,ioos:station:USF.COMPS:FHP:1,2012-02-03T15:06:00Z,28.1530,-82.8010,-0.013,1111122 
COMPS,ioos:station:USF.COMPS:FHP:1,2012-02-03T15:12:00Z,28.1530,-82.8010,-0.008,1111122 
COMPS,ioos:station:USF.COMPS:FHP:1,2012-02-03T15:18:00Z,28.1530,-82.8010,-0.006,1111122 
COMPS,ioos:station:USF.COMPS:FHP:1,2012-02-03T15:24:00Z,28.1530,-82.8010,-0.016,1111122 
COMPS,ioos:station:USF.COMPS:FHP:1,2012-02-03T15:30:00Z,28.1530,-82.8010,-0.023,1111122 
COMPS,ioos:station:USF.COMPS:FHP:1,2012-02-03T15:36:00Z,28.1530,-82.8010,-0.023,1111122 
COMPS,ioos:station:USF.COMPS:FHP:1,2012-02-03T15:42:00Z,28.1530,-82.8010,-0.02,1111122 
COMPS,ioos:station:USF.COMPS:FHP:1,2012-02-03T15:48:00Z,28.1530,-82.8010,-0.008,1111122 
COMPS,ioos:station:USF.COMPS:FHP:1,2012-02-03T15:54:00Z,28.1530,-82.8010,-0.018,1111122 
COMPS,ioos:station:USF.COMPS:FHP:1,2012-02-03T16:00:00Z,28.1530,-82.8010,-0.008,1111122 
COMPS,ioos:station:USF.COMPS:FHP:1,2012-02-03T16:06:00Z,28.1530,-82.8010,-0.013,1111122 
COMPS,ioos:station:USF.COMPS:FHP:1,2012-02-03T16:12:00Z,28.1530,-82.8010,-0.009,1111122 
COMPS,ioos:station:USF.COMPS:FHP:1,2012-02-03T16:18:00Z,28.1530,-82.8010,-0.009,1111122 
COMPS,ioos:station:USF.COMPS:FHP:1,2012-02-03T16:24:00Z,28.1530,-82.8010,-0.007,1111122 
COMPS,ioos:station:USF.COMPS:FHP:1,2012-02-03T16:30:00Z,28.1530,-82.8010,-0.026,1111122 
COMPS,ioos:station:USF.COMPS:FHP:1,2012-02-03T16:36:00Z,28.1530,-82.8010,-0.013,1111122 
COMPS,ioos:station:USF.COMPS:FHP:1,2012-02-03T16:42:00Z,28.1530,-82.8010,-0.033,1111122 
COMPS,ioos:station:USF.COMPS:FHP:1,2012-02-03T16:48:00Z,28.1530,-82.8010,-0.026,1111122 
COMPS,ioos:station:USF.COMPS:FHP:1,2012-02-03T16:54:00Z,28.1530,-82.8010,-0.032,1111122 
COMPS,ioos:station:USF.COMPS:FHP:1,2012-02-03T17:00:00Z,28.1530,-82.8010,-0.039,1111122 
COMPS,ioos:station:USF.COMPS:FHP:1,2012-02-03T17:06:00Z,28.1530,-82.8010,-0.044,1111122 
COMPS,ioos:station:USF.COMPS:FHP:1,2012-02-03T17:12:00Z,28.1530,-82.8010,-0.047,1111122 
COMPS,ioos:station:USF.COMPS:FHP:1,2012-02-03T17:18:00Z,28.1530,-82.8010,-0.047,1111122 
COMPS,ioos:station:USF.COMPS:FHP:1,2012-02-03T17:24:00Z,28.1530,-82.8010,-0.049,1111122 
COMPS,ioos:station:USF.COMPS:FHP:1,2012-02-03T17:30:00Z,28.1530,-82.8010,-0.048,1111122 
COMPS,ioos:station:USF.COMPS:FHP:1,2012-02-03T17:36:00Z,28.1530,-82.8010,-0.062,1111122 
COMPS,ioos:station:USF.COMPS:FHP:1,2012-02-03T17:42:00Z,28.1530,-82.8010,-0.054,1111122 
COMPS,ioos:station:USF.COMPS:FHP:1,2012-02-03T17:48:00Z,28.1530,-82.8010,-0.064,1111122 
COMPS,ioos:station:USF.COMPS:FHP:1,2012-02-03T17:54:00Z,28.1530,-82.8010,-0.066,1111122 
COMPS,ioos:station:USF.COMPS:FHP:1,2012-02-03T18:00:00Z,28.1530,-82.8010,-0.065,1111122 
COMPS,ioos:station:USF.COMPS:FHP:1,2012-02-03T18:06:00Z,28.1530,-82.8010,-0.084,1111122 
COMPS,ioos:station:USF.COMPS:FHP:1,2012-02-03T18:12:00Z,28.1530,-82.8010,-0.084,1111122 
COMPS,ioos:station:USF.COMPS:FHP:1,2012-02-03T18:18:00Z,28.1530,-82.8010,-0.094,1111122 
COMPS,ioos:station:USF.COMPS:FHP:1,2012-02-03T18:24:00Z,28.1530,-82.8010,-0.094,1111122 
COMPS,ioos:station:USF.COMPS:FHP:1,2012-02-03T18:30:00Z,28.1530,-82.8010,-0.1,1111122 
COMPS,ioos:station:USF.COMPS:FHP:1,2012-02-03T18:36:00Z,28.1530,-82.8010,-0.091,1111122 
COMPS,ioos:station:USF.COMPS:FHP:1,2012-02-03T18:42:00Z,28.1530,-82.8010,-0.096,1111122 
COMPS,ioos:station:USF.COMPS:FHP:1,2012-02-03T18:48:00Z,28.1530,-82.8010,-0.093,1111122 
COMPS,ioos:station:USF.COMPS:FHP:1,2012-02-03T18:54:00Z,28.1530,-82.8010,-0.087,1111122 
COMPS,ioos:station:USF.COMPS:FHP:1,2012-02-03T19:00:00Z,28.1530,-82.8010,-0.094,1111122 
COMPS,ioos:station:USF.COMPS:FHP:1,2012-02-03T19:06:00Z,28.1530,-82.8010,-0.09,1111122 
COMPS,ioos:station:USF.COMPS:FHP:1,2012-02-03T19:12:00Z,28.1530,-82.8010,-0.083,1111122 
COMPS,ioos:station:USF.COMPS:FHP:1,2012-02-03T19:18:00Z,28.1530,-82.8010,-0.086,1111122 
COMPS,ioos:station:USF.COMPS:FHP:1,2012-02-03T19:24:00Z,28.1530,-82.8010,-0.081,1111122 
COMPS,ioos:station:USF.COMPS:FHP:1,2012-02-03T19:30:00Z,28.1530,-82.8010,-0.081,1111122 
COMPS,ioos:station:USF.COMPS:FHP:1,2012-02-03T19:36:00Z,28.1530,-82.8010,-0.091,1111122 
COMPS,ioos:station:USF.COMPS:FHP:1,2012-02-03T19:42:00Z,28.1530,-82.8010,-0.079,1111122 
COMPS,ioos:station:USF.COMPS:FHP:1,2012-02-03T19:48:00Z,28.1530,-82.8010,-0.071,1111122 
COMPS,ioos:station:USF.COMPS:FHP:1,2012-02-03T19:54:00Z,28.1530,-82.8010,-0.057,1111122 
COMPS,ioos:station:USF.COMPS:FHP:1,2012-02-03T20:00:00Z,28.1530,-82.8010,-0.064,1111122 
COMPS,ioos:station:USF.COMPS:FHP:1,2012-02-03T20:06:00Z,28.1530,-82.8010,-0.054,1111122 
COMPS,ioos:station:USF.COMPS:FHP:1,2012-02-03T20:12:00Z,28.1530,-82.8010,-0.06,1111122 
COMPS,ioos:station:USF.COMPS:FHP:1,2012-02-03T20:18:00Z,28.1530,-82.8010,-0.048,1111122 
COMPS,ioos:station:USF.COMPS:FHP:1,2012-02-03T20:24:00Z,28.1530,-82.8010,-0.034,1111122 
COMPS,ioos:station:USF.COMPS:FHP:1,2012-02-03T20:30:00Z,28.1530,-82.8010,-0.028,1111122 
COMPS,ioos:station:USF.COMPS:FHP:1,2012-02-03T20:36:00Z,28.1530,-82.8010,-0.017,1111122 
COMPS,ioos:station:USF.COMPS:FHP:1,2012-02-03T20:42:00Z,28.1530,-82.8010,-0.014,1111122 
COMPS,ioos:station:USF.COMPS:FHP:1,2012-02-03T20:48:00Z,28.1530,-82.8010,-0.013,1111122 
COMPS,ioos:station:USF.COMPS:FHP:1,2012-02-03T20:54:00Z,28.1530,-82.8010,-0.014,1111122 
COMPS,ioos:station:USF.COMPS:FHP:1,2012-02-03T21:00:00Z,28.1530,-82.8010,-0.017,1111122 
COMPS,ioos:station:USF.COMPS:FHP:1,2012-02-03T21:06:00Z,28.1530,-82.8010,-0.01,1111122 
COMPS,ioos:station:USF.COMPS:FHP:1,2012-02-03T21:12:00Z,28.1530,-82.8010,-0.008,1111122 
COMPS,ioos:station:USF.COMPS:FHP:1,2012-02-03T21:18:00Z,28.1530,-82.8010,-0.003,1111122 
COMPS,ioos:station:USF.COMPS:FHP:1,2012-02-03T21:24:00Z,28.1530,-82.8010,0.001,1111122 
COMPS,ioos:station:USF.COMPS:FHP:1,2012-02-03T21:30:00Z,28.1530,-82.8010,0.007,1111122 
COMPS,ioos:station:USF.COMPS:FHP:1,2012-02-03T21:36:00Z,28.1530,-82.8010,0.012,1111122 
COMPS,ioos:station:USF.COMPS:FHP:1,2012-02-03T21:42:00Z,28.1530,-82.8010,0.019,1111122 
COMPS,ioos:station:USF.COMPS:FHP:1,2012-02-03T21:48:00Z,28.1530,-82.8010,0.023,1111122 
COMPS,ioos:station:USF.COMPS:FHP:1,2012-02-03T21:54:00Z,28.1530,-82.8010,0.027,1111122 
COMPS,ioos:station:USF.COMPS:FHP:1,2012-02-03T22:00:00Z,28.1530,-82.8010,0.04,1111122 
COMPS,ioos:station:USF.COMPS:FHP:1,2012-02-03T22:06:00Z,28.1530,-82.8010,0.043,1111122 
COMPS,ioos:station:USF.COMPS:FHP:1,2012-02-03T22:12:00Z,28.1530,-82.8010,0.06,1111122 
COMPS,ioos:station:USF.COMPS:FHP:1,2012-02-03T22:18:00Z,28.1530,-82.8010,0.068,1111122 
COMPS,ioos:station:USF.COMPS:FHP:1,2012-02-03T22:24:00Z,28.1530,-82.8010,0.075,1111122 
COMPS,ioos:station:USF.COMPS:FHP:1,2012-02-03T22:30:00Z,28.1530,-82.8010,0.081,1111122 
COMPS,ioos:station:USF.COMPS:FHP:1,2012-02-03T22:36:00Z,28.1530,-82.8010,0.098,1111122 
COMPS,ioos:station:USF.COMPS:FHP:1,2012-02-03T22:42:00Z,28.1530,-82.8010,0.109,1111122 
COMPS,ioos:station:USF.COMPS:FHP:1,2012-02-03T22:48:00Z,28.1530,-82.8010,0.129,1111122 
COMPS,ioos:station:USF.COMPS:FHP:1,2012-02-03T22:54:00Z,28.1530,-82.8010,0.132,1111122 
COMPS,ioos:station:USF.COMPS:FHP:1,2012-02-03T23:00:00Z,28.1530,-82.8010,0.15,1111122 
COMPS,ioos:station:USF.COMPS:FHP:1,2012-02-03T23:06:00Z,28.1530,-82.8010,0.163,1111122 
COMPS,ioos:station:USF.COMPS:FHP:1,2012-02-03T23:12:00Z,28.1530,-82.8010,0.181,1111122 
COMPS,ioos:station:USF.COMPS:FHP:1,2012-02-03T23:18:00Z,28.1530,-82.8010,0.189,1111122 
COMPS,ioos:station:USF.COMPS:FHP:1,2012-02-03T23:24:00Z,28.1530,-82.8010,0.201,1111122 
COMPS,ioos:station:USF.COMPS:FHP:1,2012-02-03T23:30:00Z,28.1530,-82.8010,0.214,1111122 
COMPS,ioos:station:USF.COMPS:FHP:1,2012-02-03T23:36:00Z,28.1530,-82.8010,0.228,1111122 
COMPS,ioos:station:USF.COMPS:FHP:1,2012-02-03T23:42:00Z,28.1530,-82.8010,0.242,1111122 
COMPS,ioos:station:USF.COMPS:FHP:1,2012-02-03T23:48:00Z,28.1530,-82.8010,0.255,1111122 
COMPS,ioos:station:USF.COMPS:FHP:1,2012-02-03T23:54:00Z,28.1530,-82.8010,0.261,1111122 
COMPS,ioos:station:USF.COMPS:FHP:1,2012-02-04T00:18:00Z,28.1530,-82.8010,0.288,1111122 
COMPS,ioos:station:USF.COMPS:FHP:1,2012-02-04T00:24:00Z,28.1530,-82.8010,0.295,1111122 
COMPS,ioos:station:USF.COMPS:FHP:1,2012-02-04T00:30:00Z,28.1530,-82.8010,0.292,1111122 
COMPS,ioos:station:USF.COMPS:FHP:1,2012-02-04T00:36:00Z,28.1530,-82.8010,0.289,1111122 
COMPS,ioos:station:USF.COMPS:FHP:1,2012-02-04T00:42:00Z,28.1530,-82.8010,0.296,1111122 
COMPS,ioos:station:USF.COMPS:FHP:1,2012-02-04T00:48:00Z,28.1530,-82.8010,0.302,1111122 
COMPS,ioos:station:USF.COMPS:FHP:1,2012-02-04T00:54:00Z,28.1530,-82.8010,0.315,1111122 
COMPS,ioos:station:USF.COMPS:FHP:1,2012-02-04T01:00:00Z,28.1530,-82.8010,0.32,1111122 
COMPS,ioos:station:USF.COMPS:FHP:1,2012-02-04T01:06:00Z,28.1530,-82.8010,0.33,1111122 
COMPS,ioos:station:USF.COMPS:FHP:1,2012-02-04T01:18:00Z,28.1530,-82.8010,0.325,1111122 
COMPS,ioos:station:USF.COMPS:FHP:1,2012-02-04T01:24:00Z,28.1530,-82.8010,0.323,1111122 
COMPS,ioos:station:USF.COMPS:FHP:1,2012-02-04T01:30:00Z,28.1530,-82.8010,0.323,1111122 
COMPS,ioos:station:USF.COMPS:FHP:1,2012-02-04T01:36:00Z,28.1530,-82.8010,0.332,1111122 
COMPS,ioos:station:USF.COMPS:FHP:1,2012-02-04T01:42:00Z,28.1530,-82.8010,0.333,1111122 
COMPS,ioos:station:USF.COMPS:FHP:1,2012-02-04T01:48:00Z,28.1530,-82.8010,0.335,1111122 
COMPS,ioos:station:USF.COMPS:FHP:1,2012-02-04T01:54:00Z,28.1530,-82.8010,0.33,1111122 
COMPS,ioos:station:USF.COMPS:FHP:1,2012-02-04T02:00:00Z,28.1530,-82.8010,0.33,1111122 
COMPS,ioos:station:USF.COMPS:FHP:1,2012-02-04T02:06:00Z,28.1530,-82.8010,0.321,1111122 
COMPS,ioos:station:USF.COMPS:FHP:1,2012-02-04T02:12:00Z,28.1530,-82.8010,0.32,1111122 
COMPS,ioos:station:USF.COMPS:FHP:1,2012-02-04T02:18:00Z,28.1530,-82.8010,0.315,1111122 
COMPS,ioos:station:USF.COMPS:FHP:1,2012-02-04T02:24:00Z,28.1530,-82.8010,0.313,1111122 
COMPS,ioos:station:USF.COMPS:FHP:1,2012-02-04T02:30:00Z,28.1530,-82.8010,0.296,1111122 
COMPS,ioos:station:USF.COMPS:FHP:1,2012-02-04T02:36:00Z,28.1530,-82.8010,0.296,1111122 
COMPS,ioos:station:USF.COMPS:FHP:1,2012-02-04T02:42:00Z,28.1530,-82.8010,0.286,1111122 
COMPS,ioos:station:USF.COMPS:FHP:1,2012-02-04T02:48:00Z,28.1530,-82.8010,0.269,1111122 
COMPS,ioos:station:USF.COMPS:FHP:1,2012-02-04T02:54:00Z,28.1530,-82.8010,0.262,1111122 